Location: Emporia
(38.4040°N, 96.1810°W)
Time: 18:16:44
(UTC-06:00)

ISS - Visible Passes

Search period start: 05 February 2016 00:00
Search period end: 15 February 2016 00:00
Orbit: 399 x 408 km, 51.6° (Epoch: 05 February)

Date Brightness Start Highest point End Pass type
(mag) Time Alt. Az. Time Alt. Az. Time Alt. Az.
05 Feb -1.4 18:46:33 10° W 18:49:16 24° NNW 18:51:57 10° NNE visible
06 Feb -0.6 19:32:46 10° NNW 19:33:46 11° NNW 19:34:17 11° N visible
07 Feb -0.8 18:38:59 10° WNW 18:40:55 15° NNW 18:42:51 10° NNE visible
09 Feb -0.6 18:32:07 10° NNW 18:32:37 10° NNW 18:33:06 10° N visible
13 Feb -0.6 19:51:17 10° NNW 19:51:49 12° NNW 19:51:49 12° NNW visible
14 Feb -1.0 18:59:06 10° N 19:00:34 12° NNE 19:01:25 12° NE visible
